1516204800.12,14986,9.19,71160.0,-14.15,-21.47,-20.73,0,*65
1516204801.4,14987,9.19,71156.5,-14.15,-21.67,-20.83,0,*69
1516204802.65,14988,9.25,71168.0,-14.15,-21.83,-20.93,0,*6D
1516204803.92,14989,9.25,71176.0,-14.15,-22.31,-21.53,0,*6B
1516204805.21,14990,9.19,71172.3,-14.13,-23.23,-21.67,0,*60
1516204806.46,14991,9.19,71170.5,-14.13,-23.59,-21.77,0,*6D
1516204807.7,14992,9.25,71184.8,-14.15,-23.53,-21.63,0,*67
1516204808.92,14993,9.25,71182.5,-14.15,-23.59,-21.73,0,*6D
1516204810.18,14994,9.25,71178.5,-14.15,-23.69,-21.53,0,*6B
1516204811.46,14995,9.25,71178.0,-14.17,-23.75,-21.53,0,*65
1516204812.74,14996,9.19,71180.3,-14.21,-23.75,-21.53,0,*63
1516204814.04,14997,9.19,71182.8,-14.21,-23.65,-20.99,0,*64
1516204815.32,14998,9.19,71182.3,-14.17,-23.49,-20.63,0,*65
1516204816.59,14999,9.25,71168.0,-14.21,-22.83,-20.15,0,*67
1516204817.89,15000,9.19,71176.3,-14.17,-22.17,-19.65,0,*6A
1516204819.19,15001,9.25,71168.0,-14.17,-21.57,-19.27,0,*6A
1516204820.46,15002,9.25,71174.3,-14.21,-20.63,-18.93,0,*64
1516204821.74,15003,9.19,71176.5,-14.21,-19.85,-18.73,0,*69
1516204823.01,15004,9.19,71170.0,-14.17,-19.57,-18.73,0,*64
1516204824.29,15005,9.19,71158.8,-14.21,-19.41,-19.13,0,*60
1516204825.54,15006,9.19,71150.5,-14.21,-19.51,-19.51,0,*64
1516204826.82,15007,9.25,71164.0,-14.21,-19.51,-19.81,0,*68
1516204828.07,15008,9.19,71158.3,-14.17,-19.91,-20.63,0,*68
1516204829.35,15009,9.25,71166.0,-14.21,-20.89,-21.27,0,*6E
1516204830.63,15010,9.25,71162.0,-14.21,-21.43,-21.27,0,*61
1516204831.9,15011,9.19,71166.0,-14.21,-22.03,-21.83,0,*69
1516204833.21,15012,9.19,71166.3,-14.21,-22.47,-22.17,0,*64
1516204834.48,15013,9.19,71156.0,-14.23,-23.03,-22.73,0,*64
1516204835.73,15014,9.19,71160.5,-14.21,-23.13,-22.63,0,*61
1516204837.02,15015,9.25,71160.0,-14.21,-22.93,-22.17,0,*6A
1516204838.27,15016,9.19,71152.8,-14.23,-22.27,-21.27,0,*64
1516204839.52,15017,9.19,71162.5,-14.23,-21.63,-20.49,0,*6F
1516204840.79,15018,9.25,71162.3,-14.25,-21.43,-20.19,0,*61
1516204842.04,15019,9.25,71164.8,-14.23,-21.83,-20.05,0,*67
1516204843.26,15020,9.19,71162.3,-14.23,-20.93,-19.03,0,*61
1516204844.49,15021,9.19,71162.8,-14.23,-20.35,-18.99,0,*6E
1516204845.72,15022,9.25,71172.3,-14.23,-19.71,-18.65,0,*64
1516204846.98,15023,9.25,71182.3,-14.25,-20.19,-18.69,0,*6B
1516204848.2,15024,9.25,71166.5,-14.23,-19.75,-18.41,0,*60
1516204849.45,15025,9.19,71166.5,-14.23,-19.17,-17.93,0,*65
1516204850.72,15026,9.19,71176.5,-14.25,-18.79,-17.93,0,*69
1516204851.97,15027,9.25,71178.8,-14.23,-18.65,-17.79,0,*67
1516204853.21,15028,9.19,71178.5,-14.25,-18.49,-17.73,0,*6A
1516204854.46,15029,9.19,71180.8,-14.23,-18.21,-17.63,0,*62
1516204855.68,15030,9.19,71176.8,-14.23,-18.07,-17.73,0,*6F
1516204856.91,15031,9.19,71176.5,-14.23,-18.25,-17.87,0,*65
1516204858.15,15032,9.19,71176.5,-14.23,-18.25,-17.93,0,*63
1516204859.45,15033,9.25,71184.8,-14.21,-18.35,-18.01,0,*65
1516204860.71,15034,9.19,71182.0,-14.21,-18.49,-18.07,0,*6F
1516204861.95,15035,9.19,71184.5,-14.21,-18.65,-18.17,0,*61
1516204863.23,15036,9.25,71186.3,-14.21,-18.59,-18.07,0,*6C
1516204864.48,15037,9.19,71184.8,-14.21,-18.65,-18.07,0,*62
1516204865.74,15038,9.19,71190.5,-14.21,-18.65,-17.87,0,*6A
1516204866.99,15039,9.19,71188.5,-14.21,-18.49,-17.69,0,*65
1516204868.26,15040,9.25,71188.0,-14.21,-18.17,-17.55,0,*6F
1516204869.51,15041,9.19,71188.5,-14.17,-18.07,-17.69,0,*65
1516204870.81,15042,9.19,71192.0,-14.21,-17.97,-17.55,0,*6A
1516204872.06,15043,9.19,71186.5,-14.21,-17.87,-17.73,0,*6E
1516204873.34,15044,9.19,71192.5,-14.21,-17.87,-18.01,0,*63
1516204874.6,15045,9.19,71192.3,-14.17,-18.17,-18.59,0,*6C
1516204875.84,15046,9.19,71196.8,-14.21,-18.65,-18.99,0,*63
1516204877.15,15047,9.25,71202.5,-14.17,-19.27,-19.23,0,*60
1516204878.41,15048,9.19,71192.8,-14.21,-19.81,-19.37,0,*63
1516204879.65,15049,9.25,71196.0,-14.21,-19.91,-19.07,0,*60
1516204880.91,15050,9.19,71198.3,-14.17,-19.81,-18.99,0,*6A
1516204882.21,15051,9.19,71196.5,-14.17,-19.57,-19.23,0,*60
1516204883.48,15052,9.19,71196.5,-14.21,-19.91,-19.27,0,*68
1516204884.77,15053,9.19,71192.0,-14.17,-20.19,-19.23,0,*62
1516204886.06,15054,9.19,71198.3,-14.17,-20.19,-18.89,0,*64
1516204887.3,15055,9.19,71192.3,-14.17,-19.91,-18.65,0,*6D
1516204888.57,15056,9.25,71186.8,-14.21,-19.85,-18.65,0,*6E
1516204889.88,15057,9.25,71182.5,-14.17,-19.57,-18.31,0,*64
1516204891.14,15058,9.19,71178.0,-14.17,-19.41,-18.17,0,*68
1516204892.42,15059,9.19,71176.0,-14.21,-19.41,-17.83,0,*6E
1516204893.72,15060,9.19,71176.8,-14.17,-18.93,-17.45,0,*65
1516204895.0,15061,9.19,71182.3,-14.21,-18.99,-17.41,0,*6F
1516204896.28,15062,9.19,71180.5,-14.17,-18.73,-17.11,0,*68
1516204897.55,15063,9.19,71176.8,-14.21,-18.01,-16.79,0,*66
1516204898.84,15064,9.19,71174.5,-14.17,-17.59,-16.51,0,*6C
1516204900.12,15065,9.19,71178.3,-14.17,-16.97,-16.09,0,*63
1516204901.4,15066,9.19,71174.3,-14.21,-16.65,-15.95,0,*6E
1516204902.7,15067,9.19,71174.5,-14.17,-16.51,-15.89,0,*60
1516204903.95,15068,9.19,71168.0,-14.17,-16.37,-15.75,0,*6C
1516204905.23,15069,9.19,71176.5,-14.17,-16.09,-15.75,0,*60
1516204906.48,15070,9.19,71184.0,-14.17,-16.03,-15.75,0,*62
1516204907.72,15071,9.19,71184.5,-14.17,-16.03,-15.75,0,*63
1516204908.97,15072,9.19,71186.0,-14.17,-15.95,-15.67,0,*6F
1516204910.22,15073,9.19,71170.0,-14.17,-16.03,-15.75,0,*61
1516204911.46,15074,9.19,71166.8,-14.17,-15.95,-15.67,0,*69
1516204912.71,15075,9.19,71162.8,-14.17,-15.95,-15.75,0,*6B
1516204913.96,15076,9.19,71166.0,-14.15,-15.89,-15.71,0,*63
1516204915.2,15077,9.19,71174.5,-14.15,-15.89,-15.63,0,*61
1516204916.45,15078,9.19,71170.0,-14.15,-15.85,-15.75,0,*65
1516204917.72,15079,9.19,71168.8,-14.15,-15.89,-15.89,0,*6B
1516204919.0,15080,9.25,71174.3,-14.15,-15.89,-16.09,0,*66
1516204920.24,15081,9.19,71170.8,-14.15,-16.09,-16.45,0,*64
1516204921.49,15082,9.19,71168.0,-14.15,-16.37,-16.65,0,*68
1516204922.76,15083,9.19,71174.0,-14.15,-16.51,-16.65,0,*69
1516204924.0,15084,9.19,71176.5,-14.15,-16.59,-16.65,0,*66
1516204925.25,15085,9.19,71178.0,-14.17,-16.83,-16.83,0,*6A
1516204926.5,15086,9.19,71190.3,-14.17,-16.93,-16.83,0,*68
1516204927.74,15087,9.19,71178.5,-14.15,-16.89,-16.51,0,*6F
1516204928.99,15088,9.25,71180.3,-14.15,-16.79,-16.17,0,*6D
1516204930.26,15089,9.19,71178.0,-14.15,-16.51,-15.89,0,*62
1516204931.51,15090,9.25,71184.8,-14.21,-16.37,-15.95,0,*60
1516204932.82,15091,9.19,71182.5,-14.17,-16.13,-15.81,0,*67
1516204934.12,15092,9.19,71168.5,-14.17,-16.09,-15.89,0,*67
1516204935.39,15093,9.19,71176.5,-14.17,-15.95,-15.81,0,*68
1516204936.67,15094,9.19,71182.5,-14.21,-15.95,-15.89,0,*62
1516204937.97,15095,9.19,71174.3,-14.17,-15.89,-15.89,0,*6B
1516204939.24,15096,9.19,71168.3,-14.17,-15.95,-15.89,0,*65
1516204940.54,15097,9.19,71166.0,-14.17,-15.89,-15.89,0,*69
1516204941.81,15098,9.19,71158.0,-14.17,-15.89,-15.75,0,*65
1516204943.09,15099,9.19,71158.3,-14.17,-15.81,-15.75,0,*6C
1516204944.33,15100,9.19,71162.0,-14.15,-15.85,-15.71,0,*6F
1516204945.58,15101,9.19,71158.8,-14.15,-15.75,-15.57,0,*65
1516204946.83,15102,9.19,71156.8,-14.15,-15.71,-15.57,0,*62
1516204948.1,15103,9.19,71156.3,-14.13,-15.75,-15.57,0,*61
1516204949.37,15104,9.25,71168.0,-14.15,-15.85,-15.57,0,*6F
1516204950.6,15105,9.19,71158.0,-14.15,-15.71,-15.49,0,*6A
1516204951.88,15106,9.19,71158.8,-14.13,-15.75,-15.43,0,*61
1516204953.12,15107,9.19,71152.5,-14.15,-15.63,-15.35,0,*60
1516204954.37,15108,9.19,71168.3,-14.15,-15.63,-15.21,0,*6A
1516204955.62,15109,9.19,71172.0,-14.15,-15.57,-15.29,0,*64
1516204956.84,15110,9.19,71174.5,-14.15,-15.49,-15.15,0,*6C
1516204958.08,15111,9.19,71176.3,-14.15,-15.43,-15.07,0,*64
1516204959.35,15112,9.19,71186.8,-14.13,-15.35,-15.07,0,*60
1516204960.6,15113,9.19,71188.8,-14.13,-15.29,-15.07,0,*6C
1516204961.86,15114,9.19,71194.5,-14.13,-15.21,-15.07,0,*63
1516204963.12,15115,9.19,71196.5,-14.13,-15.21,-15.15,0,*61
1516204964.37,15116,9.19,71198.8,-14.15,-15.35,-15.15,0,*61
1516204965.61,15117,9.19,71194.8,-14.11,-15.15,-15.01,0,*63
1516204966.85,15118,9.19,71190.0,-14.11,-15.15,-15.01,0,*6C
1516204968.06,15119,9.19,71188.3,-14.11,-15.11,-15.11,0,*68
1516204969.3,15120,9.19,71188.0,-14.11,-15.15,-15.01,0,*67
1516204970.54,15121,9.19,71190.0,-14.11,-15.11,-14.97,0,*6C
1516204971.78,15122,9.19,71190.3,-14.11,-15.11,-14.97,0,*6F
1516204973.04,15123,9.19,71188.3,-14.11,-15.01,-14.97,0,*6F
1516204974.28,15124,9.19,71186.3,-14.11,-15.11,-14.97,0,*69
1516204975.54,15125,9.19,71186.3,-14.11,-15.01,-14.97,0,*69
1516204976.81,15126,9.19,71176.5,-14.13,-15.07,-14.97,0,*6E
1516204978.08,15127,9.19,71192.5,-14.13,-15.07,-14.97,0,*6F
1516204979.34,15128,9.19,71188.3,-14.13,-15.01,-14.89,0,*69
1516204980.6,15129,9.19,71188.8,-14.11,-14.97,-14.93,0,*6F
1516204981.86,15130,9.19,71190.8,-14.11,-14.97,-14.93,0,*67
1516204983.12,15131,9.19,71198.8,-14.11,-14.93,-14.93,0,*62
1516204984.38,15132,9.19,71194.0,-14.11,-14.97,-14.93,0,*65
1516204985.63,15133,9.19,71182.8,-14.11,-14.97,-14.93,0,*64
1516204986.92,15134,9.19,71180.8,-14.09,-14.93,-14.97,0,*6A
1516204988.19,15135,9.19,71172.3,-14.11,-14.93,-14.83,0,*67
1516204989.48,15136,9.19,71168.5,-14.09,-14.93,-14.93,0,*6C
1516204990.74,15137,9.19,71160.8,-14.11,-14.93,-14.97,0,*60
1516204992.03,15138,9.19,71156.8,-14.09,-14.93,-14.93,0,*62
1516204993.29,15139,9.19,71164.8,-14.11,-14.93,-14.97,0,*6E
1516204994.58,15140,9.19,71158.0,-14.09,-14.97,-14.97,0,*6D
1516204995.87,15141,9.19,71160.3,-14.05,-14.93,-14.93,0,*60
1516204997.16,15142,9.19,71166.8,-14.09,-14.93,-14.97,0,*6B
1516204998.45,15143,9.19,71174.5,-14.09,-14.97,-14.97,0,*6E
1516204999.74,15144,9.19,71188.5,-14.09,-14.97,-14.97,0,*69
1516205001.03,15145,9.19,71184.3,-14.09,-15.01,-14.97,0,*66
1516205002.31,15146,9.19,71178.0,-14.09,-14.97,-14.93,0,*6F
1516205003.6,15147,9.19,71172.5,-14.09,-14.97,-14.97,0,*6A
1516205004.89,15148,9.19,71172.8,-14.09,-14.97,-14.97,0,*65
1516205006.17,15149,9.19,71182.5,-14.09,-14.97,-14.93,0,*60
1516205007.46,15150,9.19,71178.5,-14.09,-14.97,-14.97,0,*6C
1516205008.75,15151,9.19,71176.0,-14.09,-14.93,-14.93,0,*6D
1516205010.02,15152,9.19,71184.0,-14.05,-14.93,-14.89,0,*69
1516205011.28,15153,9.19,71186.5,-14.05,-14.93,-14.89,0,*68
1516205012.55,15154,9.19,71178.0,-14.05,-14.89,-14.93,0,*6F
1516205013.84,15155,9.19,71180.8,-14.05,-14.93,-14.97,0,*61
1516205015.11,15156,9.19,71184.3,-14.05,-14.93,-15.07,0,*6A
1516205016.37,15157,9.19,71186.8,-14.05,-14.97,-15.07,0,*6F
1516205017.65,15158,9.19,71188.5,-14.05,-14.97,-15.21,0,*64
1516205018.92,15159,9.19,71180.8,-14.05,-15.07,-15.35,0,*68
1516205020.19,15160,9.19,71176.5,-14.05,-15.21,-15.53,0,*66
1516205021.48,15161,9.19,71180.3,-14.05,-15.39,-15.89,0,*69
1516205022.72,15162,9.19,71188.5,-14.05,-15.67,-16.41,0,*66
1516205024.02,15163,9.19,71184.3,-14.05,-16.13,-17.25,0,*64
1516205025.28,15164,9.19,71186.0,-14.05,-17.11,-18.49,0,*65
1516205026.53,15165,9.19,71186.8,-14.05,-18.99,-19.91,0,*6F
1516205027.8,15166,9.19,71190.5,-14.05,-20.79,-20.73,0,*6F
1516205029.07,15167,9.19,71190.3,-14.05,-21.67,-20.29,0,*6F
1516205030.32,15168,9.19,71194.8,-14.05,-20.63,-19.13,0,*66
1516205031.58,15169,9.19,71184.5,-14.05,-20.19,-18.73,0,*6D
1516205032.85,15170,9.19,71186.8,-14.09,-19.75,-17.93,0,*68
1516205034.1,15171,9.19,71186.8,-14.09,-19.03,-17.35,0,*64
1516205035.4,15172,9.19,71182.5,-14.09,-18.55,-17.07,0,*64
1516205036.63,15173,9.19,71178.3,-14.09,-18.25,-16.93,0,*6E
1516205037.87,15174,9.19,71170.0,-14.09,-18.49,-16.93,0,*63
1516205039.11,15175,9.19,71172.8,-14.11,-18.55,-16.83,0,*67
1516205040.41,15176,9.19,71178.3,-14.09,-18.35,-16.69,0,*6F
1516205041.66,15177,9.19,71172.0,-14.11,-17.97,-16.41,0,*6A
1516205042.92,15178,9.19,71182.0,-14.09,-17.73,-16.13,0,*61
1516205044.22,15179,9.19,71178.3,-14.09,-17.59,-16.13,0,*68
1516205045.49,15180,9.19,71178.5,-14.11,-17.17,-15.85,0,*61
1516205046.76,15181,9.19,71184.0,-14.09,-16.69,-15.71,0,*6A
1516205048.0,15182,9.19,71184.3,-14.09,-16.59,-15.67,0,*6D
1516205049.22,15183,9.19,71186.3,-14.11,-16.45,-15.71,0,*6F
1516205050.49,15184,9.19,71182.3,-14.09,-16.03,-15.57,0,*67
1516205051.76,15185,9.19,71184.5,-14.11,-15.81,-15.43,0,*63
1516205052.98,15186,9.19,71190.3,-14.11,-15.71,-15.29,0,*63
1516205054.25,15187,9.19,71184.0,-14.09,-15.43,-15.15,0,*65
1516205055.51,15188,9.19,71182.3,-14.09,-15.29,-15.25,0,*65
1516205056.73,15189,9.19,71186.5,-14.11,-15.29,-15.25,0,*6D
1516205057.99,15190,9.19,71188.8,-14.09,-15.25,-15.25,0,*60
1516205059.24,15191,9.19,71188.5,-14.09,-15.25,-15.25,0,*61
1516205060.52,15192,9.19,71190.5,-14.09,-15.39,-15.29,0,*63
1516205061.76,15193,9.19,71188.0,-14.11,-15.39,-15.29,0,*6B
1516205063.04,15194,9.19,71186.8,-14.09,-15.39,-15.29,0,*65
1516205064.29,15195,9.19,71186.8,-14.11,-15.39,-15.29,0,*6D
1516205065.52,15196,9.19,71190.5,-14.11,-15.29,-15.25,0,*63
1516205066.77,15197,9.19,71194.5,-14.11,-15.39,-15.29,0,*6F
1516205068.04,15198,9.19,71188.3,-14.09,-15.67,-15.43,0,*6E
1516205069.31,15199,9.19,71190.5,-14.09,-15.67,-15.43,0,*6F
1516205070.6,15200,9.19,71186.0,-14.09,-15.81,-15.43,0,*64
1516205071.88,15201,9.19,71188.0,-14.09,-15.81,-15.53,0,*64
1516205073.15,15202,9.19,71190.8,-14.09,-15.71,-15.43,0,*69
1516205074.4,15203,9.19,71190.8,-14.11,-15.67,-15.39,0,*6B
1516205075.64,15204,9.19,71190.0,-14.11,-15.57,-15.29,0,*6E
1516205076.91,15205,9.19,71192.3,-14.09,-15.39,-15.15,0,*61
1516205078.16,15206,9.19,71188.3,-14.09,-15.25,-15.15,0,*6F
1516205079.4,15207,9.19,71194.5,-14.09,-15.15,-15.11,0,*69
1516205080.65,15208,9.19,71188.5,-14.09,-15.15,-15.11,0,*66
1516205081.89,15209,9.19,71186.8,-14.09,-15.15,-15.11,0,*67
1516205083.16,15210,9.19,71186.0,-14.09,-15.15,-15.01,0,*6E
1516205084.44,15211,9.19,71188.0,-14.09,-15.01,-15.01,0,*6A
1516205085.7,15212,9.19,71174.5,-14.11,-15.01,-15.01,0,*60
1516205086.98,15213,9.19,71168.8,-14.09,-15.01,-15.01,0,*68
1516205088.25,15214,9.19,71170.5,-14.11,-15.01,-14.97,0,*68
1516205089.53,15215,9.19,71168.8,-14.09,-15.01,-14.97,0,*60
1516205090.82,15216,9.19,71164.0,-14.09,-15.01,-14.97,0,*63
1516205092.1,15217,9.19,71164.5,-14.09,-15.01,-15.01,0,*6C
1516205093.37,15218,9.19,71154.5,-14.09,-15.11,-15.01,0,*62
1516205094.65,15219,9.19,71158.5,-14.09,-15.01,-15.01,0,*62
1516205095.89,15220,9.19,71166.5,-14.05,-15.11,-15.07,0,*63
1516205097.15,15221,9.19,71162.8,-14.05,-14.97,-15.07,0,*6D
1516205098.39,15222,9.19,71172.0,-14.05,-15.11,-15.11,0,*66
1516205099.64,15223,9.19,71176.8,-14.05,-15.11,-15.25,0,*60
1516205100.91,15224,9.19,71178.0,-14.05,-15.21,-15.25,0,*64
1516205102.18,15225,9.19,71168.3,-14.05,-15.25,-15.39,0,*6C
1516205103.43,15226,9.19,71174.3,-14.05,-15.25,-15.49,0,*68
1516205104.7,15227,9.19,71178.5,-14.05,-15.39,-15.63,0,*6C
1516205105.95,15228,9.19,71170.8,-14.05,-15.63,-15.75,0,*6B
1516205107.22,15229,9.19,71170.0,-14.05,-15.63,-15.81,0,*61
1516205108.47,15230,9.19,71170.5,-14.05,-15.75,-15.95,0,*6B
1516205109.73,15231,9.19,71166.3,-14.05,-15.99,-16.13,0,*65
1516205110.98,15232,9.19,71174.3,-14.05,-16.37,-16.41,0,*66
1516205112.23,15233,9.19,71172.0,-14.05,-16.55,-16.55,0,*66
1516205113.52,15234,9.19,71182.8,-14.05,-16.69,-16.51,0,*6A
1516205114.79,15235,9.19,71176.8,-14.05,-16.79,-16.51,0,*6A
1516205116.08,15236,9.19,71172.5,-14.05,-16.69,-16.51,0,*68
1516205117.35,15237,9.19,71176.0,-14.05,-16.69,-16.55,0,*6D
1516205118.62,15238,9.19,71170.8,-14.05,-16.69,-16.55,0,*62
1516205119.92,15239,9.19,71180.0,-14.05,-16.69,-16.69,0,*6C
1516205121.18,15240,9.19,71182.3,-14.05,-17.03,-16.97,0,*6E
1516205122.48,15241,9.19,71202.3,-14.05,-17.41,-17.25,0,*61
1516205123.78,15242,9.19,71180.3,-14.05,-17.59,-17.41,0,*69
1516205125.04,15243,9.19,71174.3,-14.05,-17.69,-17.41,0,*6B
1516205126.31,15244,9.19,71176.8,-14.05,-17.69,-17.55,0,*69
1516205127.55,15245,9.19,71180.5,-14.05,-17.69,-17.69,0,*67
1516205128.82,15246,9.19,71188.3,-14.05,-18.07,-18.01,0,*62
1516205130.06,15247,9.19,71192.0,-14.05,-18.21,-18.17,0,*60
1516205131.34,15248,9.19,71186.0,-14.05,-18.49,-18.31,0,*65
1516205132.63,15249,9.19,71174.3,-14.05,-18.59,-18.31,0,*65
1516205133.9,15250,9.19,71164.3,-14.05,-18.59,-18.21,0,*6C
1516205135.14,15251,9.19,71174.5,-14.05,-18.49,-18.17,0,*69
1516205136.38,15252,9.19,71176.3,-14.05,-18.45,-18.17,0,*66
1516205137.64,15253,9.19,71178.0,-14.05,-18.49,-17.93,0,*68
1516205138.91,15254,9.19,71186.5,-14.05,-18.45,-17.59,0,*65
1516205140.15,15255,9.19,71182.8,-14.11,-18.21,-17.59,0,*63
1516205141.43,15256,9.19,71182.8,-14.09,-17.93,-17.35,0,*65
1516205142.7,15257,9.19,71176.0,-14.09,-17.63,-17.35,0,*6B
1516205144.0,15258,9.19,71184.3,-14.09,-17.45,-17.45,0,*67
1516205145.27,15259,9.19,71186.5,-14.05,-17.55,-17.87,0,*65
1516205146.51,15260,9.19,71186.3,-14.05,-17.87,-18.17,0,*66
1516205147.8,15261,9.19,71190.3,-14.05,-18.31,-18.59,0,*6F
1516205149.04,15262,9.19,71186.8,-14.11,-18.55,-18.65,0,*64
1516205150.3,15263,9.19,71190.3,-14.09,-18.83,-18.89,0,*65
1516205151.54,15264,9.19,71198.0,-14.09,-19.03,-19.47,0,*68
1516205152.82,15265,9.19,71198.5,-14.09,-19.57,-20.25,0,*66
1516205154.09,15266,9.19,71196.5,-14.11,-20.83,-20.83,0,*63
1516205155.36,15267,9.19,71186.5,-14.09,-21.17,-20.99,0,*6C
1516205156.63,15268,9.19,71182.8,-14.09,-21.47,-20.83,0,*6D
1516205157.92,15269,9.19,71192.8,-14.09,-21.33,-20.83,0,*6F
1516205159.22,15270,9.19,71192.5,-14.09,-21.33,-21.27,0,*68
1516205160.43,15271,9.19,71192.8,-14.11,-22.41,-22.37,0,*64
1516205161.65,15272,9.19,71190.5,-14.11,-22.87,-22.11,0,*69
1516205162.86,15273,9.19,71186.0,-14.11,-22.83,-22.11,0,*6C
1516205164.08,15274,9.19,71182.5,-14.11,-22.41,-21.17,0,*60
1516205165.32,15275,9.19,71186.3,-14.13,-21.47,-20.69,0,*6E
1516205166.57,15276,9.19,71184.5,-14.13,-21.39,-20.73,0,*6F
1516205167.83,15277,9.19,71184.8,-14.13,-22.03,-21.33,0,*61
1516205169.1,15278,9.19,71178.0,-14.13,-21.67,-20.69,0,*61
1516205170.35,15279,9.19,71176.8,-14.15,-21.83,-20.93,0,*69
1516205171.6,15280,9.19,71174.8,-14.15,-22.17,-21.39,0,*60
1516205172.88,15281,9.19,71160.8,-14.13,-22.63,-21.23,0,*6F
1516205174.17,15282,9.19,71174.8,-14.13,-22.31,-21.03,0,*69
1516205175.41,15283,9.19,71166.0,-14.15,-22.87,-21.33,0,*60
1516205176.63,15284,9.19,71172.8,-14.15,-22.97,-21.47,0,*65
1516205177.91,15285,9.19,71172.8,-14.15,-22.47,-21.53,0,*6C
1516205179.18,15286,9.19,71172.8,-14.15,-22.73,-21.67,0,*6F
1516205180.43,15287,9.19,71168.8,-14.15,-22.47,-21.47,0,*6B
1516205181.67,15288,9.19,71172.8,-14.15,-22.77,-21.47,0,*67
1516205182.89,15289,9.19,71178.0,-14.15,-23.09,-21.09,0,*64
1516205184.18,15290,9.19,71172.8,-14.17,-22.47,-20.59,0,*61
1516205185.47,15291,9.19,71178.3,-14.21,-21.83,-19.81,0,*61
1516205186.77,15292,9.19,71178.0,-14.21,-21.27,-19.23,0,*64
1516205188.04,15293,9.19,71176.5,-14.17,-20.73,-18.93,0,*6A
1516205189.3,15294,9.19,71176.0,-14.17,-20.35,-18.73,0,*61
1516205190.58,15295,9.19,71166.5,-14.17,-19.91,-18.31,0,*62
1516205191.83,15296,9.19,71158.3,-14.17,-19.37,-18.07,0,*68
1516205193.09,15297,9.19,71162.8,-14.17,-18.79,-17.83,0,*61
1516205194.33,15298,9.19,71168.0,-14.17,-18.73,-17.73,0,*6B
1516205195.63,15299,9.19,71164.3,-14.17,-18.31,-17.55,0,*68
1516205196.91,15300,9.19,71158.0,-14.21,-18.21,-17.59,0,*61
1516205198.18,15301,9.19,71160.8,-14.17,-18.01,-17.69,0,*64
1516205199.43,15302,9.19,71162.3,-14.17,-18.17,-17.87,0,*60
1516205200.7,15303,9.19,71168.0,-14.21,-18.49,-18.01,0,*6E
1516205201.95,15304,9.19,71168.3,-14.21,-18.65,-18.17,0,*60
1516205203.2,15305,9.19,71168.8,-14.17,-18.99,-18.21,0,*62
1516205204.48,15306,9.19,71170.5,-14.21,-19.23,-17.87,0,*67
1516205205.73,15307,9.19,71176.0,-14.21,-18.99,-17.73,0,*6D
1516205207.03,15308,9.19,71176.5,-14.21,-18.59,-17.55,0,*6A
1516205208.3,15309,9.19,71186.3,-14.21,-18.17,-17.17,0,*67
1516205209.58,15310,9.19,71188.3,-14.21,-17.97,-17.31,0,*6C
1516205210.83,15311,9.19,71186.0,-14.21,-17.87,-17.69,0,*61
1516205212.08,15312,9.19,71176.3,-14.21,-18.21,-17.73,0,*6A
1516205213.32,15313,9.19,71164.8,-14.21,-18.65,-18.17,0,*66
1516205214.62,15314,9.19,71158.5,-14.21,-18.89,-18.31,0,*67
1516205215.9,15315,9.19,71156.5,-14.21,-19.07,-18.35,0,*65
1516205217.16,15316,9.19,71158.3,-14.21,-19.37,-18.73,0,*67
1516205218.4,15317,9.19,71168.8,-14.21,-19.99,-19.07,0,*60
1516205219.68,15318,9.19,71176.5,-14.21,-20.49,-19.37,0,*6B
1516205220.93,15319,9.19,71168.8,-14.17,-20.89,-19.37,0,*63
1516205222.17,15320,9.19,71166.5,-14.21,-20.63,-19.07,0,*6B
1516205223.45,15321,9.19,71162.0,-14.21,-20.59,-18.93,0,*6F
1516205224.71,15322,9.19,71158.3,-14.21,-20.15,-18.79,0,*60
1516205225.99,15323,9.19,71176.3,-14.21,-19.65,-18.73,0,*66
1516205227.22,15324,9.19,71168.0,-14.21,-20.05,-18.99,0,*69
1516205228.49,15325,9.19,71168.5,-14.21,-19.81,-18.79,0,*60
1516205229.71,15326,9.19,71156.3,-14.23,-19.71,-18.69,0,*6F
1516205230.96,15327,9.19,71156.5,-14.23,-19.41,-18.11,0,*62
1516205232.22,15328,9.19,71164.5,-14.23,-19.13,-17.79,0,*6B
1516205233.49,15329,9.19,71158.5,-14.21,-18.45,-17.17,0,*62
1516205234.77,15330,9.19,71160.8,-14.21,-17.87,-17.03,0,*6E
1516205236.05,15331,9.19,71162.8,-14.21,-17.87,-17.11,0,*6C
1516205237.32,15332,9.19,71164.5,-14.21,-17.87,-17.17,0,*69
1516205238.6,15333,9.19,71174.8,-14.21,-18.17,-17.41,0,*6D
1516205239.84,15334,9.19,71182.8,-14.17,-18.21,-17.31,0,*6D
1516205241.09,15335,9.19,71172.5,-14.21,-18.21,-17.31,0,*69
1516205242.37,15336,9.19,71176.5,-14.21,-18.07,-17.41,0,*69
1516205243.64,15337,9.19,71172.3,-14.21,-18.21,-17.45,0,*68
1516205244.91,15338,9.19,71176.5,-14.17,-18.35,-17.69,0,*69
1516205246.19,15339,9.19,71174.8,-14.17,-18.45,-17.59,0,*6C
1516205247.46,15340,9.19,71176.5,-14.21,-18.45,-17.59,0,*67
1516205248.74,15341,9.19,71186.3,-14.21,-18.73,-17.59,0,*63
1516205250.04,15342,9.19,71182.8,-14.21,-18.59,-17.17,0,*62
1516205251.32,15343,9.19,71184.3,-14.21,-18.21,-17.03,0,*69
1516205252.56,15344,9.19,71182.5,-14.21,-18.07,-16.93,0,*62
1516205253.84,15345,9.19,71190.8,-14.21,-17.87,-16.69,0,*61
1516205255.11,15346,9.19,71186.5,-14.21,-17.55,-16.37,0,*66
1516205256.42,15347,9.19,71188.8,-14.21,-17.03,-16.09,0,*69
1516205257.72,15348,9.19,71188.5,-14.21,-16.65,-15.89,0,*6C
1516205259.0,15349,9.19,71180.8,-14.21,-16.41,-15.81,0,*63
1516205260.31,15350,9.19,71186.8,-14.17,-16.09,-15.81,0,*62
1516205261.56,15351,9.19,71184.5,-14.21,-15.95,-15.67,0,*68
1516205262.84,15352,9.19,71188.5,-14.21,-15.89,-15.75,0,*65
1516205264.14,15353,9.19,71188.0,-14.21,-15.89,-15.89,0,*67
1516205265.42,15354,9.19,71186.8,-14.17,-15.89,-15.95,0,*68
1516205266.69,15355,9.19,71186.5,-14.17,-15.95,-16.09,0,*62
1516205267.96,15356,9.19,71174.5,-14.21,-16.27,-16.37,0,*63
1516205269.26,15357,9.19,71160.8,-14.17,-16.27,-16.51,0,*67
1516205270.53,15358,9.19,71162.3,-14.21,-16.41,-16.51,0,*6D
1516205271.81,15359,9.19,71156.5,-14.21,-16.65,-16.55,0,*6E
1516205273.08,15360,9.19,71156.5,-14.17,-16.79,-16.65,0,*6F
1516205274.31,15361,9.19,71166.8,-14.15,-16.75,-16.75,0,*61
1516205275.61,15362,9.19,71166.3,-14.21,-17.11,-17.03,0,*66
1516205276.86,15363,9.19,71166.0,-14.17,-17.83,-17.69,0,*65
1516205278.1,15364,9.19,71170.8,-14.17,-18.79,-18.17,0,*6E
1516205279.38,15365,9.19,71172.0,-14.17,-19.57,-18.17,0,*62
1516205280.65,15366,9.19,71168.8,-14.21,-19.85,-17.87,0,*6D
1516205281.87,15367,9.19,71178.3,-14.15,-19.75,-17.69,0,*64
1516205283.12,15368,9.19,71172.0,-14.17,-19.51,-17.73,0,*64
1516205284.39,15369,9.19,71168.0,-14.17,-19.23,-17.73,0,*60
1516205285.64,15370,9.19,71174.5,-14.17,-19.07,-17.73,0,*6E
1516205286.88,15371,9.19,71164.8,-14.17,-19.07,-17.73,0,*6F
1516205288.15,15372,9.19,71158.8,-14.17,-18.73,-17.59,0,*66
1516205289.43,15373,9.19,71162.5,-14.21,-18.65,-17.59,0,*65
1516205290.7,15374,9.19,71160.0,-14.17,-18.73,-17.59,0,*60
1516205292.0,15375,9.19,71162.8,-14.17,-18.89,-17.59,0,*64
1516205293.28,15376,9.19,71170.3,-14.21,-18.99,-17.41,0,*6A
1516205294.55,15377,9.19,71170.3,-14.21,-18.89,-17.31,0,*6D
1516205295.85,15378,9.19,71160.8,-14.17,-18.93,-17.11,0,*6E
1516205297.07,15379,9.19,71160.3,-14.23,-18.79,-16.97,0,*63
1516205298.32,15380,9.19,71164.5,-14.21,-18.45,-16.79,0,*68
1516205299.6,15381,9.19,71168.0,-14.21,-18.01,-16.55,0,*67
1516205300.85,15382,9.19,71178.0,-14.21,-17.69,-16.41,0,*60
1516205302.12,15383,9.19,71166.5,-14.21,-17.31,-16.23,0,*68
1516205303.39,15384,9.19,71166.3,-14.21,-16.97,-16.23,0,*62
1516205304.69,15385,9.19,71160.0,-14.17,-16.65,-16.23,0,*6B